Regional Weather Roundup
Issued by NWS Green Bay, WI

Home | Current Version | Previous Version | Graphics & Text | Print | Product List | Glossary Off
Versions: 1 2 3 4 5 6 7 8 9 10 11 12 13 14 15 16 17 18 19 20 21 22 23 24 25 26 27 28 29 30 31 32 33 34 35 36 37 38 39 40 41 42 43 44 45 46 47 48 49 50

000
ASUS43 KGRB 231600
RWRGRB

NORTH-CENTRAL AND NORTHEAST WISCONSIN REGIONAL WEATHER ROUNDUP
NATIONAL WEATHER SERVICE GREEN BAY WI
1000 AM CST THU FEB 23 2017

WIZ005-009-010>012-018-019-231700-
NORTH CENTRAL WISCONSIN

CITY           SKY/WX    TMP DP  RH WIND       PRES   REMARKS
IRONWOOD       CLOUDY    31  26  82 NW8       29.90R
MANITOWISH WTR NOT AVBL
ARBOR VITAE    NOT AVBL
EAGLE RIVER    NOT AVBL
LAND O LAKES   NOT AVBL
RHINELANDER    CLOUDY    32  25  75 N10G16    29.86R
PHILLIPS       NOT AVBL
ANTIGO         NOT AVBL
TOMAHAWK       NOT AVBL
MERRILL        NOT AVBL
$$

WIZ013-073-231700-
NORTHEAST WISCONSIN

CITY           SKY/WX    TMP DP  RH WIND       PRES   REMARKS
IRON MOUNTAIN  CLOUDY    33  24  69 N14       29.84S
MARINETTE      CLOUDY    36  28  73 N10G17    29.85S
$$

WIZ017-030-035>037-045-231700-
CENTRAL WISCONSIN

CITY           SKY/WX    TMP DP  RH WIND       PRES   REMARKS
MEDFORD        NOT AVBL
WAUSAU         CLOUDY    35  26  69 N12       29.87R
MOSINEE        CLOUDY    36  30  80 NW10G17   29.87R
MARSHFIELD     CLOUDY    37  28  70 N10       29.86R
WISC RAPIDS    PTSUNNY   42  30  62 N14       29.88R
STEVENS POINT  NOT AVBL
WAUPACA        NOT AVBL
SHAWANO        CLOUDY    38  30  71 N12       29.86R
CLINTONVILLE   NOT AVBL
WAUTOMA        MOSUNNY   42  31  64 N12       29.85R
$$

WIZ038-039-048-051-231700-
FOX VALLEY

CITY           SKY/WX    TMP DP  RH WIND       PRES   REMARKS
NWS GREEN BAY  CLOUDY    39  31  72 N13       29.85R
APPLETON       PTSUNNY   37  28  70 NE12      29.83R
OSHKOSH        SUNNY     42  31  64 N9        29.84R
FOND DU LAC    CLOUDY    42  32  67 NE13      29.84R
$$

WIZ022-050-052-231700-
EAST CENTRAL WISCONSIN

CITY           SKY/WX    TMP DP  RH WIND       PRES   REMARKS
EPHRAIM        NOT AVBL
WASHINGTON ISL NOT AVBL
STURGEON BAY   CLOUDY    36  30  79 N13       29.85
MANITOWOC      NOT AVBL
SHEBOYGAN        N/A     41  33  73 N9        29.83R
$$

LMZ563-521-522-541>543-231700-
LAKESHORE

STATION/POSITION TIME  TEMP    WIND        PRES    VSBY  WAVE
                       AIR SEA DIR/SP/G                  HT/PER
                 (UTC) (F)     (DEG/KT/KT) (MB)    (MI)  (FT/S)
SHEBOYGAN LKSHOR 1500   38      10/ 14/ 16 1010.0R
KEWAUNEE LKSHORE 1530   37     350/  8/ 12 1009.5R
NORTHPORT PIER   1540   34     330/ 16/ 19 1010.2F
SISTER BAY LKSHO 1505   34     350/ 14/ 16   N/A
CHAMBERS ISLAND  1540   34     330/ 12/ 16 1010.2F
MENOMINEE LKSHOR 1530   35     330/ 16/ 18 1009.6F
$$



USA.gov is the U.S. government's official web portal to all federal, state and local government web resources and services.